User: anonymous
Location: Caltech
(34.1382°N, 118.1253°W)
Time: 13:01:15
(UTC-07:00)
Language:

Iridium 75 - Orbit

View from above orbital plane
View from above orbital plane
View from above satellite
View from above satellite

Ground track
Ground track

The orbit data is extracted from the following two-line orbital elements,

1 25346U 98032E   14205.40226642  .00000218  00000-0  70952-4 0  9033
2 25346 086.3991 306.6474 0002290 111.1623 291.7773 14.34212848847918
Epoch (UTC): 24 July 2014 09:39:15
Eccentricity: 0.0002290
inclination: 86.3991°
perigee height: 776 km
apogee height: 779 km
right ascension of ascending node: 306.6474°
argument of perigee: 111.1623°
revolutions per day: 14.34212848
mean anomaly at epoch: 291.7773°
orbit number at epoch: 84791

The dashed part of the orbit path shows where the satellite is in the earth's shadow,  

DLR